Time,TemperatureF,DewpointF,PressureIn,WindDirection,WindDirectionDegrees,WindSpeedMPH,WindSpeedGustMPH,Humidity,HourlyPrecipIn,Conditions,Clouds,dailyrainin,SoftwareType,DateUTC
2013-02-28 00:02:00,35.4,5.5,30.21,NE,52,0.0,0.0,28,0.00,,,0.00,meteohub,2013-02-28 07:02:00,
2013-02-28 00:07:00,35.2,5.4,30.21,NE,52,0.0,0.0,28,0.00,,,0.00,meteohub,2013-02-28 07:07:00,
2013-02-28 00:12:00,35.1,5.2,30.21,NE,52,0.0,0.0,28,0.00,,,0.00,meteohub,2013-02-28 07:12:00,
2013-02-28 00:17:00,34.9,5.0,30.21,NE,52,0.0,0.0,28,0.00,,,0.00,meteohub,2013-02-28 07:17:00,
2013-02-28 00:22:00,34.7,5.0,30.21,NE,52,0.0,0.0,28,0.00,,,0.00,meteohub,2013-02-28 07:22:00,
2013-02-28 00:27:00,34.5,4.8,30.21,NE,52,0.0,0.0,28,0.00,,,0.00,meteohub,2013-02-28 07:27:00,
2013-02-28 00:32:00,34.3,5.4,30.21,NE,52,0.0,0.0,29,0.00,,,0.00,meteohub,2013-02-28 07:32:00,
2013-02-28 00:37:00,34.2,4.5,30.22,NE,52,0.0,0.0,28,0.00,,,0.00,meteohub,2013-02-28 07:37:00,
2013-02-28 00:42:00,34.0,4.3,30.22,NE,52,0.0,0.0,28,0.00,,,0.00,meteohub,2013-02-28 07:42:00,
2013-02-28 00:47:00,34.0,4.3,30.22,NE,52,0.0,0.0,28,0.00,,,0.00,meteohub,2013-02-28 07:47:00,
2013-02-28 00:52:00,34.0,3.6,30.22,NE,52,0.0,0.0,27,0.00,,,0.00,meteohub,2013-02-28 07:52:00,
2013-02-28 00:57:00,34.0,3.6,30.22,NE,52,0.0,0.0,27,0.00,,,0.00,meteohub,2013-02-28 07:57:00,
2013-02-28 01:02:00,33.6,3.2,30.22,NE,52,0.0,0.0,27,0.00,,,0.00,meteohub,2013-02-28 08:02:00,
2013-02-28 01:07:00,33.6,3.9,30.22,NE,52,0.0,0.0,28,0.00,,,0.00,meteohub,2013-02-28 08:07:00,
2013-02-28 01:12:00,33.4,3.7,30.23,NE,52,0.0,0.0,28,0.00,,,0.00,meteohub,2013-02-28 08:12:00,
2013-02-28 01:18:00,33.3,4.5,30.23,NE,52,0.0,0.0,29,0.00,,,0.00,meteohub,2013-02-28 08:18:00,
2013-02-28 01:23:00,33.3,4.5,30.23,NE,52,0.0,0.0,29,0.00,,,0.00,meteohub,2013-02-28 08:23:00,
2013-02-28 01:28:00,33.1,4.3,30.23,NE,52,0.0,0.0,29,0.00,,,0.00,meteohub,2013-02-28 08:28:00,
2013-02-28 01:33:00,32.9,4.8,30.23,NE,52,0.0,0.0,30,0.00,,,0.00,meteohub,2013-02-28 08:33:00,
2013-02-28 01:39:00,32.7,4.6,30.23,NE,52,0.0,0.0,30,0.00,,,0.00,meteohub,2013-02-28 08:39:00,
2013-02-28 01:44:00,32.5,5.2,30.23,NE,52,0.0,0.0,31,0.00,,,0.00,meteohub,2013-02-28 08:44:00,
2013-02-28 01:49:00,32.5,5.9,30.23,NE,52,0.0,0.0,32,0.00,,,0.00,meteohub,2013-02-28 08:49:00,
2013-02-28 01:54:00,32.4,5.0,30.24,NE,52,0.0,0.0,31,0.00,,,0.00,meteohub,2013-02-28 08:54:00,
2013-02-28 01:59:00,32.2,5.5,30.23,NE,52,0.0,0.0,32,0.00,,,0.00,meteohub,2013-02-28 08:59:00,
2013-02-28 02:05:00,32.2,6.3,30.23,NE,52,0.0,0.0,33,0.00,,,0.00,meteohub,2013-02-28 09:05:00,
2013-02-28 02:10:00,32.0,6.8,30.23,NE,52,0.0,0.0,34,0.00,,,0.00,meteohub,2013-02-28 09:10:00,
2013-02-28 02:15:00,32.0,6.8,30.23,NE,52,0.0,0.0,34,0.00,,,0.00,meteohub,2013-02-28 09:15:00,
2013-02-28 02:20:00,32.2,7.5,30.23,NE,52,0.0,0.0,35,0.00,,,0.00,meteohub,2013-02-28 09:20:00,
2013-02-28 02:26:00,31.8,6.6,30.23,NE,52,0.0,0.0,34,0.00,,,0.00,meteohub,2013-02-28 09:26:00,
2013-02-28 02:31:00,31.8,6.6,30.23,NE,52,0.0,0.0,34,0.00,,,0.00,meteohub,2013-02-28 09:31:00,
2013-02-28 02:36:00,31.8,6.6,30.24,NE,52,0.0,0.0,34,0.00,,,0.00,meteohub,2013-02-28 09:36:00,
2013-02-28 02:41:00,31.8,6.6,30.23,NE,52,0.0,0.0,34,0.00,,,0.00,meteohub,2013-02-28 09:41:00,
2013-02-28 02:46:00,31.6,7.2,30.23,NE,52,0.0,0.0,35,0.00,,,0.00,meteohub,2013-02-28 09:46:00,
2013-02-28 02:51:00,31.5,7.0,30.22,NE,52,0.0,0.0,35,0.00,,,0.00,meteohub,2013-02-28 09:51:00,
2013-02-28 02:57:00,31.3,6.8,30.22,NE,52,0.0,0.0,35,0.00,,,0.00,meteohub,2013-02-28 09:57:00,
2013-02-28 03:02:00,31.3,7.3,30.23,NE,52,0.0,0.0,36,0.00,,,0.00,meteohub,2013-02-28 10:02:00,
2013-02-28 03:07:00,31.1,7.3,30.23,NE,52,0.0,0.0,36,0.00,,,0.00,meteohub,2013-02-28 10:07:00,
2013-02-28 03:12:00,30.9,7.7,30.22,NE,52,0.0,0.0,37,0.00,,,0.00,meteohub,2013-02-28 10:12:00,
2013-02-28 03:17:00,30.7,7.5,30.23,NE,52,0.0,0.0,37,0.00,,,0.00,meteohub,2013-02-28 10:17:00,
2013-02-28 03:22:00,30.6,7.3,30.22,NE,52,0.0,0.0,37,0.00,,,0.00,meteohub,2013-02-28 10:22:00,
2013-02-28 03:27:00,30.4,6.6,30.23,NE,52,0.0,0.0,36,0.00,,,0.00,meteohub,2013-02-28 10:27:00,
2013-02-28 03:33:00,30.4,7.2,30.23,NE,52,0.0,0.0,37,0.00,,,0.00,meteohub,2013-02-28 10:33:00,
2013-02-28 03:38:00,30.4,7.2,30.24,NE,52,0.0,0.0,37,0.00,,,0.00,meteohub,2013-02-28 10:38:00,
2013-02-28 03:43:00,30.4,7.2,30.23,NE,52,0.0,0.0,37,0.00,,,0.00,meteohub,2013-02-28 10:43:00,
2013-02-28 03:48:00,30.4,7.2,30.23,NE,52,0.0,0.0,37,0.00,,,0.00,meteohub,2013-02-28 10:48:00,
2013-02-28 03:54:00,30.6,6.8,30.23,NE,52,0.0,0.0,36,0.00,,,0.00,meteohub,2013-02-28 10:54:00,
2013-02-28 03:59:00,30.7,6.3,30.24,NE,52,0.0,0.0,35,0.00,,,0.00,meteohub,2013-02-28 10:59:00,
2013-02-28 04:04:00,30.9,6.4,30.24,NE,52,0.0,0.0,35,0.00,,,0.00,meteohub,2013-02-28 11:04:00,
2013-02-28 04:09:00,31.1,6.1,30.24,ENE,59,0.0,0.0,34,0.00,,,0.00,meteohub,2013-02-28 11:09:00,
2013-02-28 04:15:00,31.3,6.1,30.23,ENE,59,0.0,0.0,34,0.00,,,0.00,meteohub,2013-02-28 11:15:00,
2013-02-28 04:20:00,31.5,6.3,30.24,ENE,57,0.0,0.0,34,0.00,,,0.00,meteohub,2013-02-28 11:20:00,
2013-02-28 04:25:00,31.6,6.4,30.24,ENE,57,0.0,0.0,34,0.00,,,0.00,meteohub,2013-02-28 11:25:00,
2013-02-28 04:30:00,31.6,6.4,30.24,NE,55,0.0,0.0,34,0.00,,,0.00,meteohub,2013-02-28 11:30:00,
2013-02-28 04:35:00,31.8,6.6,30.24,NE,55,0.0,0.0,34,0.00,,,0.00,meteohub,2013-02-28 11:35:00,
2013-02-28 04:41:00,31.8,5.9,30.24,NE,55,0.0,0.0,33,0.00,,,0.00,meteohub,2013-02-28 11:41:00,
2013-02-28 04:46:00,31.6,5.9,30.24,NE,55,0.0,0.0,33,0.00,,,0.00,meteohub,2013-02-28 11:46:00,
2013-02-28 04:51:00,31.5,5.0,30.24,WNW,300,0.0,0.0,32,0.00,,,0.00,meteohub,2013-02-28 11:51:00,
2013-02-28 04:56:00,30.7,5.0,30.24,WNW,299,0.0,0.0,33,0.00,,,0.00,meteohub,2013-02-28 11:56:00,
2013-02-28 05:01:00,30.4,4.6,30.24,WNW,299,0.0,0.0,33,0.00,,,0.00,meteohub,2013-02-28 12:01:00,
2013-02-28 05:07:00,30.0,5.0,30.24,WNW,299,0.0,0.0,34,0.00,,,0.00,meteohub,2013-02-28 12:07:00,
2013-02-28 05:12:00,29.8,4.8,30.25,WNW,299,0.0,0.0,34,0.00,,,0.00,meteohub,2013-02-28 12:12:00,
2013-02-28 05:17:00,29.5,4.6,30.25,WNW,299,0.0,0.0,34,0.00,,,0.00,meteohub,2013-02-28 12:17:00,
2013-02-28 05:22:00,29.1,4.3,30.25,WNW,299,0.0,0.0,34,0.00,,,0.00,meteohub,2013-02-28 12:22:00,
2013-02-28 05:27:00,28.9,4.1,30.25,WNW,299,0.0,0.0,34,0.00,,,0.00,meteohub,2013-02-28 12:27:00,
2013-02-28 05:33:00,28.8,4.5,30.26,WNW,299,0.0,0.0,35,0.00,,,0.00,meteohub,2013-02-28 12:33:00,
2013-02-28 05:38:00,28.8,4.5,30.26,WNW,299,0.0,0.0,35,0.00,,,0.00,meteohub,2013-02-28 12:38:00,
2013-02-28 05:43:00,28.8,4.5,30.26,WNW,299,0.0,0.0,35,0.00,,,0.00,meteohub,2013-02-28 12:43:00,
2013-02-28 05:48:00,28.8,4.5,30.26,WNW,299,0.0,0.0,35,0.00,,,0.00,meteohub,2013-02-28 12:48:00,
2013-02-28 05:53:00,28.8,4.5,30.26,WNW,299,0.0,0.0,35,0.00,,,0.00,meteohub,2013-02-28 12:53:00,
2013-02-28 05:59:00,28.8,4.5,30.27,WNW,299,0.0,0.0,35,0.00,,,0.00,meteohub,2013-02-28 12:59:00,
2013-02-28 06:04:00,28.8,4.5,30.26,WNW,299,0.0,0.0,35,0.00,,,0.00,meteohub,2013-02-28 13:04:00,
2013-02-28 06:09:00,28.8,4.5,30.27,WNW,299,0.0,0.0,35,0.00,,,0.00,meteohub,2013-02-28 13:09:00,
2013-02-28 06:14:00,28.8,3.9,30.27,WNW,299,0.0,0.0,34,0.00,,,0.00,meteohub,2013-02-28 13:14:00,
2013-02-28 06:20:00,28.8,3.9,30.27,WNW,299,0.0,0.0,34,0.00,,,0.00,meteohub,2013-02-28 13:20:00,
2013-02-28 06:25:00,28.9,4.1,30.27,WNW,299,0.0,0.0,34,0.00,,,0.00,meteohub,2013-02-28 13:25:00,
2013-02-28 06:30:00,29.1,3.6,30.28,NNW,336,0.0,0.0,33,0.00,,,0.00,meteohub,2013-02-28 13:30:00,
2013-02-28 06:35:00,29.1,2.8,30.28,NNW,336,0.0,0.0,32,0.00,,,0.00,meteohub,2013-02-28 13:35:00,
2013-02-28 06:41:00,29.1,2.8,30.28,NNW,336,0.0,0.0,32,0.00,,,0.00,meteohub,2013-02-28 13:41:00,
2013-02-28 06:46:00,29.1,2.8,30.28,NNW,336,0.0,0.0,32,0.00,,,0.00,meteohub,2013-02-28 13:46:00,
2013-02-28 06:51:00,28.9,2.8,30.28,NNW,336,0.0,0.0,32,0.00,,,0.00,meteohub,2013-02-28 13:51:00,
2013-02-28 06:56:00,28.9,3.4,30.29,NNW,336,0.0,0.0,33,0.00,,,0.00,meteohub,2013-02-28 13:56:00,
2013-02-28 07:01:00,29.1,3.6,30.29,NNW,336,0.0,0.0,33,0.00,,,0.00,meteohub,2013-02-28 14:01:00,
2013-02-28 07:07:00,29.7,3.4,30.29,NNW,336,0.0,0.0,32,0.00,,,0.00,meteohub,2013-02-28 14:07:00,
2013-02-28 07:12:00,30.2,3.9,30.30,NNW,338,0.0,0.0,32,0.00,,,0.00,meteohub,2013-02-28 14:12:00,
2013-02-28 07:17:00,30.9,3.7,30.30,NNW,338,0.0,0.0,31,0.00,,,0.00,meteohub,2013-02-28 14:17:00,
2013-02-28 07:22:00,31.6,5.2,30.31,NNW,338,0.0,0.0,32,0.00,,,0.00,meteohub,2013-02-28 14:22:00,
2013-02-28 07:27:00,32.5,5.2,30.31,NNW,339,0.0,0.0,31,0.00,,,0.00,meteohub,2013-02-28 14:27:00,
2013-02-28 07:32:00,33.3,5.2,30.31,NNW,341,0.0,0.0,30,0.00,,,0.00,meteohub,2013-02-28 14:32:00,
2013-02-28 07:38:00,33.4,5.4,30.32,NNW,343,0.0,0.0,30,0.00,,,0.00,meteohub,2013-02-28 14:38:00,
2013-02-28 07:43:00,33.6,4.8,30.32,North,355,0.0,0.0,29,0.00,,,0.00,meteohub,2013-02-28 14:43:00,
2013-02-28 07:48:00,34.2,5.2,30.32,ENE,64,0.0,0.0,29,0.00,,,0.00,meteohub,2013-02-28 14:48:00,
2013-02-28 07:53:00,34.7,5.7,30.32,NE,46,0.0,0.0,29,0.00,,,0.00,meteohub,2013-02-28 14:53:00,
2013-02-28 07:58:00,35.2,6.1,30.32,NE,36,0.0,0.0,29,0.00,,,0.00,meteohub,2013-02-28 14:58:00,
2013-02-28 08:04:00,35.8,5.9,30.32,NE,41,0.0,0.0,28,0.00,,,0.00,meteohub,2013-02-28 15:04:00,
2013-02-28 08:09:00,36.1,6.1,30.33,NNE,29,0.0,0.0,28,0.00,,,0.00,meteohub,2013-02-28 15:09:00,
2013-02-28 08:14:00,36.7,6.6,30.33,NNW,340,0.0,0.0,28,0.00,,,0.00,meteohub,2013-02-28 15:14:00,
2013-02-28 08:19:00,37.0,7.0,30.34,NNW,342,0.0,0.0,28,0.00,,,0.00,meteohub,2013-02-28 15:19:00,
2013-02-28 08:25:00,37.6,7.3,30.34,NNE,17,0.0,0.0,28,0.00,,,0.00,meteohub,2013-02-28 15:25:00,
2013-02-28 08:30:00,37.9,7.0,30.34,NE,36,0.0,0.0,27,0.00,,,0.00,meteohub,2013-02-28 15:30:00,
2013-02-28 08:35:00,38.1,7.2,30.35,NNE,32,0.0,0.0,27,0.00,,,0.00,meteohub,2013-02-28 15:35:00,
2013-02-28 08:40:00,38.7,7.5,30.34,NNE,24,0.0,0.0,27,0.00,,,0.00,meteohub,2013-02-28 15:40:00,
2013-02-28 08:45:00,39.4,7.3,30.34,NNE,14,0.0,0.0,26,0.00,,,0.00,meteohub,2013-02-28 15:45:00,
2013-02-28 08:51:00,39.7,7.7,30.34,NNE,33,0.0,0.0,26,0.00,,,0.00,meteohub,2013-02-28 15:51:00,
2013-02-28 08:56:00,39.9,7.9,30.34,NNE,14,0.0,0.0,26,0.00,,,0.00,meteohub,2013-02-28 15:56:00,
2013-02-28 09:01:00,40.5,8.2,30.34,NNE,30,0.0,0.0,26,0.00,,,0.00,meteohub,2013-02-28 16:01:00,
2013-02-28 09:06:00,40.8,7.7,30.34,North,10,0.0,0.0,25,0.00,,,0.00,meteohub,2013-02-28 16:06:00,
2013-02-28 09:12:00,41.4,8.2,30.34,NW,304,0.0,0.0,25,0.00,,,0.00,meteohub,2013-02-28 16:12:00,
2013-02-28 09:17:00,42.1,7.9,30.35,NW,313,0.0,0.0,24,0.00,,,0.00,meteohub,2013-02-28 16:17:00,
2013-02-28 09:22:00,42.4,8.2,30.35,NW,306,0.0,0.0,24,0.00,,,0.00,meteohub,2013-02-28 16:22:00,
2013-02-28 09:27:00,43.0,8.6,30.35,NW,306,0.0,0.0,24,0.00,,,0.00,meteohub,2013-02-28 16:27:00,
2013-02-28 09:33:00,43.7,8.2,30.35,NW,311,0.0,0.0,23,0.00,,,0.00,meteohub,2013-02-28 16:33:00,
2013-02-28 09:38:00,44.1,8.6,30.35,NW,311,0.0,0.0,23,0.00,,,0.00,meteohub,2013-02-28 16:38:00,
2013-02-28 09:43:00,44.6,9.1,30.35,West,273,0.0,0.0,23,0.00,,,0.00,meteohub,2013-02-28 16:43:00,
2013-02-28 09:48:00,44.2,8.8,30.35,West,275,0.0,0.0,23,0.00,,,0.00,meteohub,2013-02-28 16:48:00,
2013-02-28 09:54:00,44.6,8.1,30.34,West,280,0.0,0.0,22,0.00,,,0.00,meteohub,2013-02-28 16:54:00,
2013-02-28 09:59:00,44.6,8.1,30.34,West,279,0.0,0.0,22,0.00,,,0.00,meteohub,2013-02-28 16:59:00,
2013-02-28 10:04:00,45.1,8.6,30.35,WNW,282,0.0,0.0,22,0.00,,,0.00,meteohub,2013-02-28 17:04:00,
2013-02-28 10:09:00,46.0,8.2,30.35,WNW,286,0.0,0.0,21,0.00,,,0.00,meteohub,2013-02-28 17:09:00,
2013-02-28 10:15:00,46.4,8.6,30.34,WNW,297,0.0,0.0,21,0.00,,,0.00,meteohub,2013-02-28 17:15:00,
2013-02-28 10:20:00,46.9,9.0,30.34,WNW,290,0.0,0.0,21,0.00,,,0.00,meteohub,2013-02-28 17:20:00,
2013-02-28 10:25:00,47.1,9.1,30.33,West,273,0.0,0.0,21,0.00,,,0.00,meteohub,2013-02-28 17:25:00,
2013-02-28 10:30:00,47.8,9.9,30.33,WNW,282,0.0,0.0,21,0.00,,,0.00,meteohub,2013-02-28 17:30:00,
2013-02-28 10:36:00,48.0,8.8,30.33,WNW,282,0.0,0.0,20,0.00,,,0.00,meteohub,2013-02-28 17:36:00,
2013-02-28 10:41:00,48.4,10.2,30.33,West,265,0.0,0.0,21,0.00,,,0.00,meteohub,2013-02-28 17:41:00,
2013-02-28 10:46:00,48.6,10.4,30.32,West,261,0.0,0.0,21,0.00,,,0.00,meteohub,2013-02-28 17:46:00,
2013-02-28 10:51:00,49.3,9.9,30.32,West,263,0.0,0.0,20,0.00,,,0.00,meteohub,2013-02-28 17:51:00,
2013-02-28 10:56:00,49.5,10.0,30.32,West,279,0.0,0.0,20,0.00,,,0.00,meteohub,2013-02-28 17:56:00,
2013-02-28 11:02:00,50.2,10.6,30.32,West,279,0.0,0.0,20,0.00,,,0.00,meteohub,2013-02-28 18:02:00,
2013-02-28 11:07:00,50.5,10.9,30.32,West,266,0.0,0.0,20,0.00,,,0.00,meteohub,2013-02-28 18:07:00,
2013-02-28 11:12:00,51.1,11.3,30.32,West,269,0.0,0.0,20,0.00,,,0.00,meteohub,2013-02-28 18:12:00,
2013-02-28 11:17:00,51.6,10.8,30.32,West,271,0.0,0.0,19,0.00,,,0.00,meteohub,2013-02-28 18:17:00,
2013-02-28 11:22:00,51.8,10.8,30.31,West,274,0.0,0.0,19,0.00,,,0.00,meteohub,2013-02-28 18:22:00,
2013-02-28 11:27:00,52.3,11.3,30.31,West,263,0.0,0.0,19,0.00,,,0.00,meteohub,2013-02-28 18:27:00,
2013-02-28 11:33:00,52.2,11.1,30.31,WSW,257,0.0,0.0,19,0.00,,,0.00,meteohub,2013-02-28 18:33:00,
2013-02-28 11:38:00,51.8,10.8,30.30,WSW,245,0.0,0.0,19,0.00,,,0.00,meteohub,2013-02-28 18:38:00,
2013-02-28 11:43:00,52.3,11.3,30.31,WSW,245,0.0,0.0,19,0.00,,,0.00,meteohub,2013-02-28 18:43:00,
2013-02-28 11:48:00,53.8,11.3,30.30,WSW,254,0.0,0.0,18,0.00,,,0.00,meteohub,2013-02-28 18:48:00,
2013-02-28 11:54:00,54.1,11.5,30.30,SW,230,0.0,0.0,18,0.00,,,0.00,meteohub,2013-02-28 18:54:00,
2013-02-28 11:59:00,54.1,11.5,30.30,SSE,159,0.0,0.0,18,0.00,,,0.00,meteohub,2013-02-28 18:59:00,
2013-02-28 12:04:00,54.0,10.0,30.30,SSW,199,0.0,0.0,17,0.00,,,0.00,meteohub,2013-02-28 19:04:00,
2013-02-28 12:09:00,54.0,10.0,30.30,SSW,200,0.0,0.0,17,0.00,,,0.00,meteohub,2013-02-28 19:09:00,
2013-02-28 12:15:00,54.1,10.2,30.29,SW,232,0.0,0.0,17,0.00,,,0.00,meteohub,2013-02-28 19:15:00,
2013-02-28 12:20:00,54.1,10.2,30.29,South,189,0.0,0.0,17,0.00,,,0.00,meteohub,2013-02-28 19:20:00,
2013-02-28 12:25:00,53.8,10.0,30.29,SSW,194,0.0,0.0,17,0.00,,,0.00,meteohub,2013-02-28 19:25:00,
2013-02-28 12:30:00,53.8,10.0,30.29,WSW,249,0.0,0.0,17,0.00,,,0.00,meteohub,2013-02-28 19:30:00,
2013-02-28 12:35:00,54.1,10.2,30.28,West,268,0.0,0.0,17,0.00,,,0.00,meteohub,2013-02-28 19:35:00,
2013-02-28 12:41:00,54.7,12.0,30.28,SSW,209,0.0,0.0,18,0.00,,,0.00,meteohub,2013-02-28 19:41:00,
2013-02-28 12:46:00,55.0,10.9,30.28,SSW,206,0.0,0.0,17,0.00,,,0.00,meteohub,2013-02-28 19:46:00,
2013-02-28 12:51:00,55.2,9.9,30.27,West,269,0.0,0.0,16,0.00,,,0.00,meteohub,2013-02-28 19:51:00,
2013-02-28 12:56:00,55.6,8.6,30.27,West,269,0.0,0.0,15,0.00,,,0.00,meteohub,2013-02-28 19:56:00,
2013-02-28 13:02:00,55.8,8.8,30.27,West,269,0.0,0.0,15,0.00,,,0.00,meteohub,2013-02-28 20:02:00,
2013-02-28 13:07:00,56.3,9.1,30.27,WSW,257,0.0,0.0,15,0.00,,,0.00,meteohub,2013-02-28 20:07:00,
2013-02-28 13:12:00,55.6,8.6,30.27,West,269,0.0,0.0,15,0.00,,,0.00,meteohub,2013-02-28 20:12:00,
2013-02-28 13:17:00,54.7,7.9,30.27,SW,227,0.0,0.0,15,0.00,,,0.00,meteohub,2013-02-28 20:17:00,
2013-02-28 13:22:00,54.5,7.7,30.27,SSW,203,0.0,0.0,15,0.00,,,0.00,meteohub,2013-02-28 20:22:00,
2013-02-28 13:27:00,55.0,8.2,30.27,West,261,0.0,0.0,15,0.00,,,0.00,meteohub,2013-02-28 20:27:00,
2013-02-28 13:33:00,56.1,9.1,30.26,WSW,256,0.0,0.0,15,0.00,,,0.00,meteohub,2013-02-28 20:33:00,
2013-02-28 13:38:00,56.7,8.1,30.26,West,259,0.0,0.0,14,0.00,,,0.00,meteohub,2013-02-28 20:38:00,
2013-02-28 13:43:00,56.8,8.1,30.25,West,261,0.0,0.0,14,0.00,,,0.00,meteohub,2013-02-28 20:43:00,
2013-02-28 13:48:00,56.7,8.1,30.25,ENE,61,0.0,0.0,14,0.00,,,0.00,meteohub,2013-02-28 20:48:00,
2013-02-28 13:54:00,56.1,7.5,30.25,ENE,71,0.0,0.0,14,0.00,,,0.00,meteohub,2013-02-28 20:54:00,
2013-02-28 13:59:00,56.5,7.9,30.25,ENE,67,0.0,0.0,14,0.00,,,0.00,meteohub,2013-02-28 20:59:00,
2013-02-28 14:04:00,56.8,8.1,30.25,ENE,61,0.0,0.0,14,0.00,,,0.00,meteohub,2013-02-28 21:04:00,
2013-02-28 14:09:00,57.0,8.2,30.25,West,263,0.0,0.0,14,0.00,,,0.00,meteohub,2013-02-28 21:09:00,
2013-02-28 14:15:00,57.0,8.2,30.25,West,267,0.0,0.0,14,0.00,,,0.00,meteohub,2013-02-28 21:15:00,
2013-02-28 14:20:00,57.0,8.2,30.25,SSW,211,0.0,0.0,14,0.00,,,0.00,meteohub,2013-02-28 21:20:00,
2013-02-28 14:25:00,57.6,8.8,30.25,SW,219,0.0,0.0,14,0.00,,,0.00,meteohub,2013-02-28 21:25:00,
2013-02-28 14:30:00,57.6,7.0,30.25,ENE,76,0.0,0.0,13,0.00,,,0.00,meteohub,2013-02-28 21:30:00,
2013-02-28 14:36:00,57.4,8.6,30.25,NW,324,0.0,0.0,14,0.00,,,0.00,meteohub,2013-02-28 21:36:00,
2013-02-28 14:41:00,57.9,7.3,30.25,East,86,0.0,0.0,13,0.00,,,0.00,meteohub,2013-02-28 21:41:00,
2013-02-28 14:46:00,57.7,7.2,30.25,WSW,254,0.0,0.0,13,0.00,,,0.00,meteohub,2013-02-28 21:46:00,
2013-02-28 14:51:00,57.7,8.8,30.24,WNW,284,0.0,0.0,14,0.00,,,0.00,meteohub,2013-02-28 21:51:00,
2013-02-28 14:56:00,58.3,7.7,30.24,West,280,0.0,0.0,13,0.00,,,0.00,meteohub,2013-02-28 21:56:00,
2013-02-28 15:02:00,57.9,7.3,30.24,WSW,254,0.0,0.0,13,0.00,,,0.00,meteohub,2013-02-28 22:02:00,
2013-02-28 15:07:00,58.1,7.5,30.25,WNW,300,0.0,0.0,13,0.00,,,0.00,meteohub,2013-02-28 22:07:00,
2013-02-28 15:12:00,57.6,7.0,30.24,West,261,0.0,0.0,13,0.00,,,0.00,meteohub,2013-02-28 22:12:00,
2013-02-28 15:17:00,57.6,7.0,30.24,SW,226,0.0,0.0,13,0.00,,,0.00,meteohub,2013-02-28 22:17:00,
2013-02-28 15:22:00,57.6,7.0,30.25,WSW,252,0.0,0.0,13,0.00,,,0.00,meteohub,2013-02-28 22:22:00,
2013-02-28 15:27:00,57.7,7.2,30.24,SSE,163,0.0,0.0,13,0.00,,,0.00,meteohub,2013-02-28 22:27:00,
2013-02-28 15:32:00,58.5,6.1,30.24,West,269,0.0,0.0,12,0.00,,,0.00,meteohub,2013-02-28 22:32:00,
2013-02-28 15:38:00,58.5,6.1,30.24,WSW,244,0.0,0.0,12,0.00,,,0.00,meteohub,2013-02-28 22:38:00,
2013-02-28 15:43:00,58.3,3.9,30.24,NE,46,0.0,0.0,11,0.00,,,0.00,meteohub,2013-02-28 22:43:00,
2013-02-28 15:48:00,58.1,3.7,30.23,NW,304,0.0,0.0,11,0.00,,,0.00,meteohub,2013-02-28 22:48:00,
2013-02-28 15:53:00,57.7,5.4,30.23,WSW,255,0.0,0.0,12,0.00,,,0.00,meteohub,2013-02-28 22:53:00,
2013-02-28 15:59:00,58.5,4.1,30.23,WSW,257,0.0,0.0,11,0.00,,,0.00,meteohub,2013-02-28 22:59:00,
2013-02-28 16:04:00,58.8,2.3,30.23,West,274,0.0,0.0,10,0.00,,,0.00,meteohub,2013-02-28 23:04:00,
2013-02-28 16:09:00,58.6,4.3,30.23,WNW,285,0.0,0.0,11,0.00,,,0.00,meteohub,2013-02-28 23:09:00,
2013-02-28 16:14:00,58.5,4.1,30.23,NW,311,0.0,0.0,11,0.00,,,0.00,meteohub,2013-02-28 23:14:00,
2013-02-28 16:20:00,58.6,2.1,30.23,NW,311,0.0,0.0,10,0.00,,,0.00,meteohub,2013-02-28 23:20:00,
2013-02-28 16:25:00,58.6,2.1,30.23,WSW,241,0.0,0.0,10,0.00,,,0.00,meteohub,2013-02-28 23:25:00,
2013-02-28 16:30:00,58.5,2.1,30.23,WSW,258,0.0,0.0,10,0.00,,,0.00,meteohub,2013-02-28 23:30:00,
2013-02-28 16:35:00,58.3,3.9,30.22,West,265,0.0,0.0,11,0.00,,,0.00,meteohub,2013-02-28 23:35:00,
2013-02-28 16:40:00,58.6,2.1,30.23,West,265,0.0,0.0,10,0.00,,,0.00,meteohub,2013-02-28 23:40:00,
2013-02-28 16:46:00,59.2,4.6,30.22,West,260,0.0,0.0,11,0.00,,,0.00,meteohub,2013-02-28 23:46:00,
2013-02-28 16:51:00,59.2,4.6,30.22,West,260,0.0,0.0,11,0.00,,,0.00,meteohub,2013-02-28 23:51:00,
2013-02-28 16:56:00,59.4,2.7,30.22,West,261,0.0,0.0,10,0.00,,,0.00,meteohub,2013-02-28 23:56:00,
2013-02-28 17:01:00,59.2,2.7,30.22,WSW,241,0.0,0.0,10,0.00,,,0.00,meteohub,2013-03-01 00:01:00,
2013-02-28 17:07:00,59.2,2.7,30.22,WSW,247,0.0,0.0,10,0.00,,,0.00,meteohub,2013-03-01 00:07:00,
2013-02-28 17:12:00,58.6,2.1,30.22,WSW,243,0.0,0.0,10,0.00,,,0.00,meteohub,2013-03-01 00:12:00,
2013-02-28 17:17:00,58.6,2.1,30.22,WSW,257,0.0,0.0,10,0.00,,,0.00,meteohub,2013-03-01 00:17:00,
2013-02-28 17:22:00,58.5,2.1,30.22,WNW,296,0.0,0.0,10,0.00,,,0.00,meteohub,2013-03-01 00:22:00,
2013-02-28 17:27:00,57.9,1.6,30.22,West,266,0.0,0.0,10,0.00,,,0.00,meteohub,2013-03-01 00:27:00,
2013-02-28 17:33:00,57.7,1.6,30.22,West,269,0.0,0.0,10,0.00,,,0.00,meteohub,2013-03-01 00:33:00,
2013-02-28 17:38:00,57.7,1.6,30.22,West,268,0.0,0.0,10,0.00,,,0.00,meteohub,2013-03-01 00:38:00,
2013-02-28 17:43:00,57.7,1.6,30.22,West,268,0.0,0.0,10,0.00,,,0.00,meteohub,2013-03-01 00:43:00,
2013-02-28 17:48:00,57.9,1.6,30.22,West,269,0.0,0.0,10,0.00,,,0.00,meteohub,2013-03-01 00:48:00,
2013-02-28 17:54:00,57.4,1.2,30.22,West,273,0.0,0.0,10,0.00,,,0.00,meteohub,2013-03-01 00:54:00,
2013-02-28 17:59:00,57.0,3.0,30.22,West,272,0.0,0.0,11,0.00,,,0.00,meteohub,2013-03-01 00:59:00,
2013-02-28 18:04:00,56.7,2.7,30.23,West,272,0.0,0.0,11,0.00,,,0.00,meteohub,2013-03-01 01:04:00,
2013-02-28 18:10:00,55.9,2.1,30.22,WSW,238,0.0,0.0,11,0.00,,,0.00,meteohub,2013-03-01 01:10:00,
2013-02-28 18:15:00,55.6,1.9,30.23,West,272,0.0,0.0,11,0.00,,,0.00,meteohub,2013-03-01 01:15:00,
2013-02-28 18:20:00,55.0,1.4,30.23,West,272,0.0,0.0,11,0.00,,,0.00,meteohub,2013-03-01 01:20:00,
2013-02-28 18:25:00,54.7,3.0,30.23,West,272,0.0,0.0,12,0.00,,,0.00,meteohub,2013-03-01 01:25:00,
2013-02-28 18:30:00,54.1,2.7,30.23,West,272,0.0,0.0,12,0.00,,,0.00,meteohub,2013-03-01 01:30:00,
2013-02-28 18:36:00,54.0,2.5,30.23,West,272,0.0,0.0,12,0.00,,,0.00,meteohub,2013-03-01 01:36:00,
2013-02-28 18:41:00,53.4,2.1,30.23,West,272,0.0,0.0,12,0.00,,,0.00,meteohub,2013-03-01 01:41:00,
2013-02-28 18:46:00,53.1,3.6,30.23,West,272,0.0,0.0,13,0.00,,,0.00,meteohub,2013-03-01 01:46:00,
2013-02-28 18:51:00,52.7,3.2,30.23,West,272,0.0,0.0,13,0.00,,,0.00,meteohub,2013-03-01 01:51:00,
2013-02-28 18:56:00,52.3,2.8,30.23,West,272,0.0,0.0,13,0.00,,,0.00,meteohub,2013-03-01 01:56:00,
2013-02-28 19:02:00,52.0,2.7,30.24,West,272,0.0,0.0,13,0.00,,,0.00,meteohub,2013-03-01 02:02:00,
2013-02-28 19:07:00,51.6,3.9,30.24,West,272,0.0,0.0,14,0.00,,,0.00,meteohub,2013-03-01 02:07:00,
2013-02-28 19:12:00,51.6,3.9,30.24,West,272,0.0,0.0,14,0.00,,,0.00,meteohub,2013-03-01 02:12:00,
2013-02-28 19:17:00,51.6,3.9,30.25,West,272,0.0,0.0,14,0.00,,,0.00,meteohub,2013-03-01 02:17:00,
2013-02-28 19:22:00,51.3,3.7,30.25,West,272,0.0,0.0,14,0.00,,,0.00,meteohub,2013-03-01 02:22:00,
2013-02-28 19:27:00,51.1,3.6,30.25,West,272,0.0,0.0,14,0.00,,,0.00,meteohub,2013-03-01 02:27:00,
2013-02-28 19:33:00,50.7,4.6,30.25,West,272,0.0,0.0,15,0.00,,,0.00,meteohub,2013-03-01 02:33:00,
2013-02-28 19:38:00,50.0,4.1,30.25,West,272,0.0,0.0,15,0.00,,,0.00,meteohub,2013-03-01 02:38:00,
2013-02-28 19:43:00,49.3,5.0,30.25,West,272,0.0,0.0,16,0.00,,,0.00,meteohub,2013-03-01 02:43:00,
2013-02-28 19:48:00,48.7,4.5,30.25,West,272,0.0,0.0,16,0.00,,,0.00,meteohub,2013-03-01 02:48:00,
2013-02-28 19:54:00,48.0,2.5,30.25,West,272,0.0,0.0,15,0.00,,,0.00,meteohub,2013-03-01 02:54:00,
2013-02-28 19:59:00,47.5,3.6,30.26,West,272,0.0,0.0,16,0.00,,,0.00,meteohub,2013-03-01 02:59:00,
2013-02-28 20:04:00,46.4,3.9,30.26,West,272,0.0,0.0,17,0.00,,,0.00,meteohub,2013-03-01 03:04:00,
2013-02-28 20:09:00,45.0,2.7,30.26,West,272,0.0,0.0,17,0.00,,,0.00,meteohub,2013-03-01 03:09:00,
2013-02-28 20:14:00,43.9,1.9,30.26,West,272,0.0,0.0,17,0.00,,,0.00,meteohub,2013-03-01 03:14:00,
2013-02-28 20:20:00,43.3,2.7,30.26,West,272,0.0,0.0,18,0.00,,,0.00,meteohub,2013-03-01 03:20:00,
2013-02-28 20:25:00,43.0,2.3,30.27,West,272,0.0,0.0,18,0.00,,,0.00,meteohub,2013-03-01 03:25:00,
2013-02-28 20:30:00,42.6,2.1,30.26,West,272,0.0,0.0,18,0.00,,,0.00,meteohub,2013-03-01 03:30:00,
2013-02-28 20:35:00,42.4,1.9,30.26,West,272,0.0,0.0,18,0.00,,,0.00,meteohub,2013-03-01 03:35:00,
2013-02-28 20:41:00,42.4,1.9,30.26,West,272,0.0,0.0,18,0.00,,,0.00,meteohub,2013-03-01 03:41:00,
2013-02-28 20:46:00,42.3,2.8,30.27,West,272,0.0,0.0,19,0.00,,,0.00,meteohub,2013-03-01 03:46:00,
2013-02-28 20:51:00,42.3,2.8,30.27,West,272,0.0,0.0,19,0.00,,,0.00,meteohub,2013-03-01 03:51:00,
2013-02-28 20:56:00,42.1,2.8,30.27,West,272,0.0,0.0,19,0.00,,,0.00,meteohub,2013-03-01 03:56:00,
2013-02-28 21:01:00,41.9,2.7,30.27,West,272,0.0,0.0,19,0.00,,,0.00,meteohub,2013-03-01 04:01:00,
2013-02-28 21:07:00,41.7,3.6,30.27,West,272,0.0,0.0,20,0.00,,,0.00,meteohub,2013-03-01 04:07:00,
2013-02-28 21:12:00,41.5,2.3,30.27,West,272,0.0,0.0,19,0.00,,,0.00,meteohub,2013-03-01 04:12:00,
2013-02-28 21:17:00,41.4,3.2,30.27,West,272,0.0,0.0,20,0.00,,,0.00,meteohub,2013-03-01 04:17:00,
2013-02-28 21:22:00,41.0,3.0,30.27,West,272,0.0,0.0,20,0.00,,,0.00,meteohub,2013-03-01 04:22:00,
2013-02-28 21:28:00,40.8,2.8,30.27,West,272,0.0,0.0,20,0.00,,,0.00,meteohub,2013-03-01 04:28:00,
2013-02-28 21:33:00,40.6,1.6,30.27,West,272,0.0,0.0,19,0.00,,,0.00,meteohub,2013-03-01 04:33:00,
2013-02-28 21:38:00,40.6,1.6,30.27,West,272,0.0,0.0,19,0.00,,,0.00,meteohub,2013-03-01 04:38:00,
2013-02-28 21:43:00,40.6,2.7,30.27,West,272,0.0,0.0,20,0.00,,,0.00,meteohub,2013-03-01 04:43:00,
2013-02-28 21:49:00,40.6,1.6,30.27,West,272,0.0,0.0,19,0.00,,,0.00,meteohub,2013-03-01 04:49:00,
2013-02-28 21:54:00,40.6,2.7,30.28,West,272,0.0,0.0,20,0.00,,,0.00,meteohub,2013-03-01 04:54:00,
2013-02-28 21:59:00,40.3,3.4,30.28,West,272,0.0,0.0,21,0.00,,,0.00,meteohub,2013-03-01 04:59:00,
2013-02-28 22:00:00,40.3,3.4,30.28,West,272,0.0,0.0,21,0.00,,,0.00,meteohub,2013-03-01 05:00:00,
2013-02-28 22:01:00,39.9,3.2,30.28,West,272,0.0,0.0,21,0.00,,,0.00,meteohub,2013-03-01 05:01:00,
2013-02-28 22:02:00,39.9,3.2,30.28,West,272,0.0,0.0,21,0.00,,,0.00,meteohub,2013-03-01 05:02:00,
2013-02-28 22:07:00,39.0,2.3,30.28,West,272,0.0,0.0,21,0.00,,,0.00,meteohub,2013-03-01 05:07:00,
2013-02-28 22:12:00,38.5,2.8,30.28,West,272,0.0,0.0,22,0.00,,,0.00,meteohub,2013-03-01 05:12:00,
2013-02-28 22:17:00,38.1,2.7,30.28,West,272,0.0,0.0,22,0.00,,,0.00,meteohub,2013-03-01 05:17:00,
2013-02-28 22:22:00,37.9,3.4,30.28,West,272,0.0,0.0,23,0.00,,,0.00,meteohub,2013-03-01 05:22:00,
2013-02-28 22:27:00,37.9,3.4,30.28,West,272,0.0,0.0,23,0.00,,,0.00,meteohub,2013-03-01 05:27:00,
2013-02-28 22:32:00,37.9,3.4,30.28,West,272,0.0,0.0,23,0.00,,,0.00,meteohub,2013-03-01 05:32:00,
2013-02-28 22:37:00,37.9,4.3,30.28,West,272,0.0,0.0,24,0.00,,,0.00,meteohub,2013-03-01 05:37:00,
2013-02-28 22:43:00,37.9,4.3,30.28,West,272,0.0,0.0,24,0.00,,,0.00,meteohub,2013-03-01 05:43:00,
2013-02-28 22:48:00,37.9,4.3,30.28,West,272,0.0,0.0,24,0.00,,,0.00,meteohub,2013-03-01 05:48:00,
2013-02-28 22:53:00,37.9,4.3,30.28,West,272,0.0,0.0,24,0.00,,,0.00,meteohub,2013-03-01 05:53:00,
2013-02-28 22:58:00,37.9,4.3,30.28,West,272,0.0,0.0,24,0.00,,,0.00,meteohub,2013-03-01 05:58:00,
2013-02-28 23:04:00,37.9,5.2,30.28,West,272,0.0,0.0,25,0.00,,,0.00,meteohub,2013-03-01 06:04:00,
2013-02-28 23:09:00,37.9,4.3,30.27,West,272,0.0,0.0,24,0.00,,,0.00,meteohub,2013-03-01 06:09:00,
2013-02-28 23:14:00,37.9,3.4,30.27,West,272,0.0,0.0,23,0.00,,,0.00,meteohub,2013-03-01 06:14:00,
2013-02-28 23:19:00,37.9,3.4,30.27,West,272,0.0,0.0,23,0.00,,,0.00,meteohub,2013-03-01 06:19:00,
2013-02-28 23:24:00,37.9,3.4,30.27,West,272,0.0,0.0,23,0.00,,,0.00,meteohub,2013-03-01 06:24:00,
2013-02-28 23:30:00,37.8,3.2,30.27,West,272,0.0,0.0,23,0.00,,,0.00,meteohub,2013-03-01 06:30:00,
2013-02-28 23:35:00,37.6,3.2,30.27,West,272,0.0,0.0,23,0.00,,,0.00,meteohub,2013-03-01 06:35:00,
2013-02-28 23:40:00,37.2,2.8,30.27,West,272,0.0,0.0,23,0.00,,,0.00,meteohub,2013-03-01 06:40:00,
2013-02-28 23:45:00,37.0,3.6,30.27,West,272,0.0,0.0,24,0.00,,,0.00,meteohub,2013-03-01 06:45:00,
2013-02-28 23:51:00,36.9,4.3,30.27,West,272,0.0,0.0,25,0.00,,,0.00,meteohub,2013-03-01 06:51:00,
2013-02-28 23:56:00,36.7,4.1,30.28,West,272,0.0,0.0,25,0.00,,,0.00,meteohub,2013-03-01 06:56:00,